Regional Weather Roundup
Issued by NWS

Home | Current Version | Previous Version | Graphics & Text | Print | Product List | Glossary On
Versions: 1 2 3 4 5 6 7 8 9 10 11 12 13 14 15 16 17 18 19 20 21 22 23 24 25 26 27 28 29 30 31 32 33 34 35 36 37 38 39 40 41 42 43 44 45 46 47 48 49 50
110
ASUS44 KLIX 261707
RWRLA
LOUISIANA WEATHER ROUNDUP
NATIONAL WEATHER SERVICE NEW ORLEANS LA
1200 PM CDT THU MAR 26 2015

NOTE: "FAIR" INDICATES FEW OR NO CLOUDS BELOW 12,000 FEET WITH NO
      SIGNIFICANT WEATHER AND/OR OBSTRUCTIONS TO VISIBILITY.
      SKY/WX - SKY CONDITION AND SIGNIFICANT WEATHER.
      TMP - AIR TEMPERATURE.    DP   - DEWPOINT TEMPERATURE.
      RH  - RELATIVE HUMIDITY.  PRES - PRESSURE.
      HX  - HEAT INDEX.         WCI  - WIND CHILL INDEX.

*  THESE STATIONS ARE NOT NWS OR FAA STATIONS AND ARE NOT UNDER
   NWS QUALITY CONTROL.

LAZ040-048-061>063-065-066-069-261800-
SOUTHEAST LOUISIANA

CITY           SKY/WX    TMP DP  RH WIND       PRES   REMARKS
N.O. AUDUBON   NOT AVBL
N.O. INTL ARPT LGT RAIN  69  65  86 SW13      29.92R
N.O. LAKEFRONT LGT RAIN  71  66  84 SW14      29.93R
SLIDELL        CLOUDY    69  68  96 SE6       29.90S
BATON ROUGE    CLOUDY    71  65  81 SE9       29.90S
BOOTHVILLE     LGT RAIN  68  66  93 SW13      29.95S
BELLE CHASSE   RAIN      69  64  84 SW9       29.92S FOG
BOGALUSA*        N/A     71  65  81 S7        29.92F
GALLIANO*      CLOUDY    66  64  95 MISG      29.94F
NEW ROADS*     FAIR      73  64  74 CALM      29.90S
GONZALES*      CLOUDY    69  69  99 CALM      29.91F
HAMMOND*       CLOUDY    70  66  88 S3        29.93R
HOUMA*         LGT RAIN  66  64  94 CALM      29.94F FOG
PORT FOURCHON* MOSUNNY   68  64  88 CALM      29.97F

$$

LAZ041-044-053-054-261800-
SOUTHWEST LOUISIANA

CITY           SKY/WX    TMP DP  RH WIND       PRES   REMARKS
LAKE CHARLES   CLOUDY    71  65  81 VRB5      29.90R
LAFAYETTE      CLOUDY    74  65  73 CALM      29.88F
PATTERSON      CLOUDY    63  59  88 SW15      29.95R THUNDER
SALT POINT       N/A     62  61  96 SE6       29.90F
NEW IBERIA     CLOUDY    75  65  70 SE6       29.92R
CHENAULT AIRPK NOT AVBL

$$

LAZ027-028-261800-
CENTRAL LOUISIANA

CITY           SKY/WX    TMP DP  RH WIND       PRES   REMARKS
FORT POLK      CLOUDY    68  64  88 NW14        N/A
ALEXANDRIA INT CLOUDY    71  64  78 W9        29.87F
ALEXANDRIA     CLOUDY    71  63  75 W9        29.88F

$$

LAZ001-002-261800-
NORTHWEST LOUISIANA

CITY           SKY/WX    TMP DP  RH WIND       PRES   REMARKS
SHREVEPORT     CLOUDY    57  53  86 NW21      29.97R
BARKSDALE AFB  NOT AVBL
DTN SHREVEPORT CLOUDY    57  52  83 NW15G25   29.96R

$$

LAZ014-016-261800-
NORTHEAST LOUISIANA

CITY           SKY/WX    TMP DP  RH WIND       PRES   REMARKS
MONROE         CLOUDY    67  62  84 W8        29.90R
TALLULAH       MOSUNNY   74  60  61 VRB6      29.87F

$$




USA.gov is the U.S. government's official web portal to all federal, state and local government web resources and services.